Wind_Speed
36 34 35 38 40 39 37 36 34 35 37 36 35 34 32 31 32 33 33 32 30 32 34 35 35 35 35 34 34 34 33 33 33 32 29 27 26 26 23 24 23 23 23
38 38 37 39 42 40 38 39 39 37 36 36 37 37 35 32 31 31 30 29 32 31 34 35 36 36 36 36 36 35 35 34 35 34 32 30 28 27 25 25 24 23 23
38 36 38 39 40 41 39 37 34 33 34 37 38 38 34 32 29 30 31 32 30 31 32 35 36 36 36 37 37 36 35 35 36 34 35 32 31 28 25 24 25 26 25
34 31 34 38 39 40 36 36 37 37 39 40 38 37 35 35 34 33 31 30 30 29 30 31 35 35 36 36 37 37 37 34 35 34 35 34 33 29 27 26 26 27 28
30 30 34 40 41 42 40 38 37 38 41 39 36 35 34 34 35 34 32 31 28 29 29 30 32 32 35 35 36 36 37 35 34 34 36 35 34 32 29 27 28 28 27
29 31 35 39 42 42 38 35 36 39 41 36 33 35 35 35 36 38 37 36 34 29 27 27 27 30 31 32 34 35 35 37 34 36 36 37 34 34 31 30 29 30 29
30 31 35 39 41 41 37 35 37 41 37 33 34 38 39 39 38 38 37 37 38 37 34 30 29 26 31 30 30 33 33 35 36 37 36 36 37 35 34 31 32 32 32
33 32 36 40 43 43 43 39 39 42 35 34 35 38 39 38 36 34 32 31 29 30 32 31 30 31 29 29 30 31 33 34 35 36 37 36 37 36 36 35 34 34 33
36 35 39 45 45 46 45 41 41 41 34 35 37 37 36 34 33 33 33 32 31 30 31 31 31 30 32 31 30 31 32 33 35 35 36 36 38 38 38 37 35 36 36
38 39 41 46 49 49 45 42 41 38 34 37 37 39 37 33 33 33 34 32 32 31 30 30 30 31 31 35 34 33 33 33 35 35 36 37 37 39 40 39 38 37 37
45 44 43 48 53 54 47 42 44 39 37 37 38 36 36 35 34 35 32 32 32 32 29 28 28 30 32 33 35 35 36 36 37 37 38 39 38 42 42 41 40 40 39
46 53 50 48 53 53 46 41 43 41 36 35 37 36 36 36 35 37 36 34 32 31 29 29 30 30 29 33 34 36 35 36 35 36 38 41 39 43 44 43 43 41 42
46 50 55 49 49 48 43 40 43 39 35 34 37 36 36 36 36 35 32 32 31 31 30 29 29 29 28 29 32 35 36 36 35 35 36 40 41 44 44 43 44 44 42
45 51 61 49 41 42 40 40 41 35 35 34 37 38 37 36 33 31 33 32 31 29 28 28 28 29 27 29 31 33 35 36 37 38 36 41 42 43 43 43 42 43 43
46 42 47 42 36 37 38 42 37 37 36 37 41 40 37 36 32 32 31 32 29 26 28 29 29 29 31 30 31 33 36 37 36 36 37 38 43 43 43 44 43 42 42
39 39 32 31 30 33 36 41 35 35 38 38 44 38 35 36 34 34 33 31 27 26 27 26 26 24 25 28 28 29 30 33 37 37 37 38 40 43 43 42 46 45 44
27 21 18 24 28 32 37 41 37 36 41 43 40 38 37 36 37 35 35 31 28 28 29 28 28 28 26 25 27 28 30 30 32 35 37 35 39 41 44 44 42 46 46
21 17 18 22 25 31 36 36 36 46 41 42 41 40 37 38 37 38 34 31 30 31 30 29 30 28 26 25 27 28 30 30 30 32 34 33 35 42 42 41 41 42 43
19 19 23 23 27 32 35 35 34 37 40 43 42 41 38 37 37 34 33 32 32 31 29 28 26 25 24 23 24 26 28 28 27 27 29 30 33 37 42 43 42 40 38
19 23 25 25 29 30 33 32 34 38 41 42 41 40 38 38 36 34 34 32 30 28 25 25 26 25 23 26 26 26 29 31 31 32 31 32 31 33 37 39 41 42 40
21 25 25 27 30 33 33 34 36 39 40 40 38 37 37 38 36 36 33 32 28 25 25 24 23 22 24 25 27 30 30 30 29 30 30 30 32 34 35 36 37 41 42
22 22 25 28 32 35 36 37 38 37 36 36 36 36 37 36 35 34 33 28 25 23 23 21 20 19 18 20 22 22 24 25 26 28 29 30 32 34 36 36 37 38 39
22 22 24 28 33 36 35 36 35 32 33 33 35 35 31 34 34 30 26 25 22 20 17 16 15 16 17 18 18 18 19 22 25 28 28 29 31 34 36 37 34 37 38
22 21 25 29 35 35 34 31 29 28 31 30 32 31 32 30 28 27 22 20 17 13 13 13 12 13 13 13 13 15 15 16 20 24 26 27 29 33 36 33 32 35 36
20 24 27 32 36 30 30 27 25 28 27 30 28 28 29 26 24 20 17 13 11 11 10 9 9 8 8 8 9 11 12 13 14 18 21 23 26 31 32 31 30 31 31
20 23 31 35 28 27 26 21 24 25 26 23 23 26 23 21 16 13 12 11 9 8 7 6 5 6 6 8 8 11 10 10 13 17 18 21 23 27 28 29 31 31 32
Wind_Direction
308 306 305 305 306 307 310 314 317 316 316 312 310 310 307 304 297 291 289 285 274 264 264 266 265 261 258 256 252 252 249 247 243 242 237 237 241 245 244 253 249 249 250
309 308 308 305 306 309 312 316 318 315 313 311 312 313 312 308 302 296 289 283 280 271 261 261 263 263 260 258 255 251 250 246 245 244 239 236 238 239 241 246 250 248 250
309 308 306 304 304 309 313 317 317 317 316 317 316 315 311 309 308 302 294 291 285 279 272 262 260 261 260 258 256 253 249 246 244 242 241 237 237 236 238 244 246 244 240
309 310 307 304 306 308 313 317 315 316 318 319 317 314 311 306 301 298 295 298 293 284 276 266 261 262 261 259 257 253 250 247 244 244 241 239 236 236 230 237 244 246 242
316 314 308 305 306 307 312 317 314 318 319 319 316 314 310 304 300 298 297 292 294 288 283 273 263 259 261 258 256 254 251 249 245 245 243 239 237 237 233 230 239 242 243
320 314 310 309 310 312 314 312 317 320 320 319 317 310 304 303 300 297 292 290 292 288 283 281 272 260 252 253 254 253 252 251 245 243 241 239 240 237 236 233 236 242 240
310 315 318 314 313 315 313 315 320 324 321 319 315 307 305 306 303 298 296 289 286 285 284 279 276 271 262 255 249 250 250 250 249 244 241 240 239 239 241 234 233 238 240
305 308 308 318 317 317 313 316 320 324 320 318 309 303 305 308 305 302 300 296 289 285 280 275 270 269 263 256 253 248 246 245 244 243 243 241 238 242 243 237 233 236 237
301 309 312 314 312 318 312 314 316 322 316 313 311 307 307 305 301 301 302 298 296 290 283 280 273 266 260 256 254 249 247 245 244 243 241 239 237 239 240 242 238 236 237
301 307 312 311 315 316 310 310 316 318 310 310 313 312 313 305 302 303 304 301 296 292 285 278 276 271 262 257 254 251 247 247 245 243 242 238 237 239 241 242 239 238 238
309 310 308 306 311 311 310 308 315 315 307 309 314 312 310 305 303 300 301 297 296 294 285 282 280 274 267 258 255 252 248 246 247 246 244 241 238 238 236 239 238 237 239
307 307 306 305 306 306 303 304 311 310 307 314 315 309 307 301 299 302 300 297 294 290 281 280 279 273 267 261 254 251 249 245 244 245 245 243 239 237 236 237 238 236 239
302 296 298 297 298 298 295 305 308 302 306 311 313 309 308 307 306 304 300 293 292 289 282 280 276 272 265 261 256 251 247 245 245 246 246 243 239 237 235 235 236 235 235
294 292 290 290 285 289 291 304 301 296 302 311 315 311 312 310 309 304 301 295 294 288 283 280 278 270 265 262 257 251 248 247 250 253 245 241 237 235 234 235 235 235 233
289 281 280 282 284 281 290 297 297 301 308 305 310 311 313 311 308 304 298 297 293 288 286 281 275 270 266 264 261 252 246 247 249 247 247 241 235 233 233 233 233 231 230
286 277 277 279 279 281 288 294 291 303 304 307 308 309 311 308 305 301 298 298 291 286 283 282 277 274 271 265 260 250 245 243 248 244 244 240 235 233 232 233 232 230 230
288 290 282 270 278 280 282 286 291 302 309 302 308 310 309 307 304 301 298 294 287 286 281 278 274 273 271 265 256 250 248 248 245 239 238 237 234 232 230 231 231 230 231
292 295 282 285 291 285 286 286 287 289 300 307 306 307 306 306 301 299 297 295 290 289 285 278 280 276 271 262 254 249 248 248 238 235 233 233 230 228 228 227 227 227 228
290 287 285 293 289 285 282 284 281 294 294 300 302 303 306 302 302 302 300 298 293 290 284 281 279 274 269 263 257 248 245 238 231 229 230 230 230 228 226 225 225 225 226
281 281 284 290 283 281 284 284 286 292 297 300 300 303 302 301 300 300 301 298 297 293 287 282 276 268 259 261 251 245 242 241 240 238 233 230 229 228 224 222 224 225 225
276 277 290 288 284 285 288 284 287 292 295 297 299 300 299 300 298 300 300 298 294 290 291 283 271 266 265 261 255 250 247 245 241 237 232 228 226 225 225 223 222 222 224
278 286 287 287 285 289 286 282 285 290 295 295 298 298 299 297 300 300 300 295 288 289 287 279 270 268 252 248 246 245 245 243 238 234 230 226 224 222 222 221 219 217 218
276 278 283 283 289 285 282 284 289 291 297 299 299 301 300 302 303 302 300 291 287 285 277 273 270 262 254 253 248 240 240 240 234 229 224 222 219 216 217 218 216 213 213
281 275 273 285 293 284 286 289 290 298 301 298 299 303 304 305 304 300 297 291 288 278 276 274 266 261 255 250 241 229 223 221 222 221 216 215 215 213 213 214 209 210 213
271 267 277 286 294 285 291 292 298 301 298 302 302 305 308 310 310 306 301 296 290 282 277 270 252 244 221 201 194 199 199 198 196 197 198 203 208 206 207 205 201 206 209
263 273 280 291 288 289 292 297 301 297 303 303 304 309 315 318 315 308 310 307 294 275 259 219 185 174 196 206 213 204 193 203 198 196 195 197 199 199 198 197 196 198 197
Height
5879 5876 5872 5869 5867 5867 5866 5863 5862 5861 5859 5856 5854 5852 5852 5850 5851 5850 5848 5847 5847 5847 5846 5845 5845 5847 5847 5848 5849 5849 5851 5853 5855 5857 5859 5860 5861 5863 5864 5866 5868 5870 5871
5874 5872 5869 5865 5862 5861 5861 5859 5857 5856 5854 5852 5849 5847 5846 5843 5842 5841 5841 5840 5839 5839 5839 5839 5839 5839 5840 5842 5843 5844 5846 5847 5849 5851 5854 5855 5857 5860 5861 5863 5865 5867 5869
5871 5867 5863 5861 5859 5858 5858 5856 5854 5853 5850 5847 5844 5841 5839 5838 5836 5835 5833 5832 5832 5832 5831 5831 5832 5833 5834 5835 5837 5838 5840 5842 5845 5846 5848 5849 5852 5855 5858 5860 5861 5863 5865
5868 5864 5860 5857 5856 5854 5854 5852 5850 5848 5845 5842 5839 5836 5833 5831 5830 5829 5827 5824 5824 5825 5825 5824 5825 5825 5826 5828 5829 5831 5833 5836 5838 5839 5842 5844 5847 5852 5852 5854 5857 5860 5862
5864 5860 5857 5852 5852 5850 5850 5848 5846 5843 5840 5837 5835 5832 5829 5827 5825 5823 5821 5820 5818 5817 5817 5819 5819 5819 5819 5821 5822 5825 5827 5830 5832 5833 5836 5838 5842 5846 5848 5849 5852 5855 5858
5862 5858 5854 5850 5848 5846 5846 5844 5842 5839 5835 5832 5830 5828 5825 5822 5819 5817 5815 5814 5813 5812 5811 5810 5811 5812 5813 5814 5816 5818 5821 5823 5826 5828 5830 5833 5836 5840 5844 5845 5847 5851 5854
5859 5856 5853 5848 5845 5843 5842 5840 5838 5835 5831 5828 5825 5822 5819 5816 5813 5810 5808 5807 5806 5805 5804 5804 5804 5805 5805 5807 5810 5811 5812 5816 5819 5822 5824 5827 5830 5834 5838 5841 5842 5846 5850
5855 5853 5849 5845 5841 5839 5837 5836 5833 5830 5826 5824 5821 5819 5815 5811 5808 5804 5802 5801 5800 5798 5797 5796 5797 5797 5799 5801 5802 5805 5806 5808 5811 5815 5817 5820 5824 5827 5831 5835 5838 5842 5845
5850 5849 5844 5841 5837 5836 5834 5832 5829 5826 5823 5820 5816 5814 5811 5807 5804 5800 5796 5794 5793 5792 5790 5789 5789 5790 5791 5793 5795 5797 5799 5802 5804 5807 5811 5814 5818 5821 5825 5829 5832 5836 5839
5846 5843 5841 5836 5833 5831 5830 5827 5825 5822 5818 5814 5812 5808 5806 5802 5798 5795 5791 5789 5787 5785 5784 5782 5782 5782 5784 5785 5787 5789 5792 5794 5796 5799 5803 5807 5813 5815 5819 5822 5826 5830 5833
5840 5836 5835 5832 5828 5826 5824 5822 5819 5817 5813 5810 5806 5803 5800 5796 5792 5789 5788 5784 5781 5779 5777 5776 5776 5776 5776 5777 5779 5781 5784 5787 5789 5792 5795 5800 5805 5809 5814 5817 5820 5824 5827
5835 5828 5827 5827 5823 5821 5818 5817 5815 5811 5808 5805 5801 5798 5795 5792 5788 5783 5780 5778 5775 5773 5771 5770 5769 5769 5769 5770 5772 5774 5776 5779 5782 5785 5788 5792 5797 5802 5807 5810 5814 5817 5823
5833 5830 5820 5820 5819 5816 5813 5811 5810 5806 5803 5800 5796 5793 5789 5785 5781 5777 5775 5772 5770 5767 5765 5763 5762 5762 5763 5764 5765 5767 5769 5772 5774 5778 5781 5784 5788 5794 5799 5803 5807 5811 5816
5828 5822 5812 5811 5813 5812 5808 5807 5804 5801 5799 5795 5792 5789 5784 5779 5776 5773 5769 5766 5763 5760 5758 5757 5756 5756 5757 5757 5758 5760 5762 5765 5767 5769 5774 5777 5781 5786 5791 5796 5800 5805 5810
5816 5814 5805 5804 5806 5807 5805 5801 5800 5798 5794 5790 5787 5783 5779 5774 5770 5767 5764 5761 5756 5754 5752 5751 5750 5750 5749 5750 5750 5751 5755 5757 5759 5762 5765 5769 5773 5778 5784 5789 5794 5799 5804
5805 5800 5799 5798 5800 5802 5800 5797 5797 5793 5788 5786 5781 5777 5774 5769 5764 5760 5758 5754 5750 5748 5746 5745 5744 5743 5742 5741 5742 5744 5746 5750 5751 5754 5757 5760 5765 5771 5777 5782 5788 5793 5798
5797 5795 5794 5794 5795 5796 5795 5793 5790 5787 5784 5779 5777 5772 5767 5763 5758 5754 5750 5747 5744 5741 5739 5738 5736 5736 5734 5735 5735 5737 5738 5741 5743 5746 5749 5753 5758 5764 5770 5776 5780 5785 5792
5794 5792 5791 5790 5790 5791 5790 5788 5785 5781 5779 5774 5771 5766 5762 5757 5751 5746 5744 5740 5737 5734 5731 5729 5727 5726 5726 5727 5728 5729 5730 5732 5735 5739 5742 5747 5752 5757 5762 5768 5774 5780 5786
5789 5788 5788 5787 5785 5786 5784 5782 5779 5776 5772 5769 5765 5760 5754 5750 5745 5741 5736 5733 5729 5726 5724 5722 5720 5719 5719 5720 5720 5721 5723 5725 5728 5732 5737 5741 5745 5750 5756 5762 5768 5774 5780
5784 5784 5783 5782 5781 5780 5779 5776 5773 5770 5766 5762 5758 5753 5748 5743 5738 5734 5729 5725 5722 5718 5716 5714 5713 5713 5713 5712 5713 5715 5716 5719 5722 5725 5730 5735 5739 5744 5749 5755 5761 5768 5774
5780 5780 5779 5778 5777 5775 5772 5769 5767 5764 5760 5756 5751 5746 5741 5736 5730 5726 5722 5718 5714 5712 5709 5706 5705 5704 5705 5705 5706 5708 5710 5713 5716 5720 5723 5728 5733 5738 5743 5749 5755 5761 5768
5775 5775 5774 5773 5772 5769 5766 5763 5760 5758 5753 5749 5744 5740 5735 5728 5724 5719 5715 5710 5707 5704 5701 5699 5697 5697 5698 5699 5700 5702 5704 5707 5710 5713 5717 5721 5727 5733 5738 5743 5750 5757 5764
5770 5770 5770 5769 5766 5763 5760 5758 5755 5752 5747 5743 5737 5732 5728 5721 5716 5711 5707 5703 5700 5697 5696 5695 5694 5694 5694 5694 5695 5697 5699 5701 5704 5707 5712 5716 5722 5727 5733 5739 5746 5751 5758
5766 5766 5765 5764 5761 5758 5755 5752 5749 5745 5741 5736 5731 5725 5719 5715 5709 5704 5700 5697 5694 5693 5692 5691 5691 5690 5690 5691 5692 5693 5695 5697 5699 5702 5707 5711 5716 5721 5727 5735 5742 5748 5755
5761 5761 5760 5758 5755 5752 5750 5747 5743 5740 5736 5730 5725 5720 5714 5709 5703 5699 5696 5692 5690 5689 5689 5688 5688 5689 5689 5690 5691 5693 5695 5697 5698 5701 5704 5708 5712 5717 5723 5733 5742 5748 5754
5757 5757 5756 5753 5750 5748 5745 5742 5738 5735 5730 5725 5720 5715 5709 5704 5698 5695 5692 5689 5687 5687 5686 5687 5688 5688 5689 5690 5691 5693 5696 5698 5699 5701 5703 5706 5710 5717 5724 5732 5741 5748 5752